ARIANE 5 R/B, 40615

Orbit data source: Space-Track

ARIANE 5 R/B, 40615 is space debris in HEO originally from a launch on Sun, 26 Apr 2015 UTC launched from the French Guiana (FRGUI). Debris objects in space refer to the collection of defunct objects orbiting the Earth. Examples of debris include non-operational satellites, rocket bodies, and fragments generated from explosions, collisions, or faulty payload assembly.

Loading next visibility...
Identifier
40615, 2015-022C
Orbit
HEO
Country
Flag of FRFR
Related business
Manufacturer
Airbus Safran
Mission
Spacecraft
Bus & Motor
ESC-A, Unknown motor
Mass
~5,000 kg wet, ~5,000 kg dry
Launch date (UTC)
2015-04-26 (11 years ago)
Launch vehicle
Unknown
Launch site
French Guiana (FRGUI)
Object type
Payload
Rocket body
Debris
Shape & HBR
Cyl + 1 Nozzle, 3.5 m
Radar Cross Section
41.627 m², Large (>1 m²)

Expand to show TLE details & history
Last TLE update: 1 day ago

TLE from 1 day ago
0 ARIANE 5 R/B
1 40615U 15022C   26061.34998801  .00014698  00000-0  10154-2 0  9994
2 40615   5.4597 165.5797 6630671 124.8412 315.8524  3.17363385103976
Epoch: 2026-03-02T08:23Z
TLE epoch observation values (Epoch: 2026-03-02T08:23:58.964Z)
Latitude
0.00014°
Longitude
-120.80013°
Altitude
11,342.939 km
Speed
4.96 km/s
True Right ascension
11h 01m 21s
True Declination
0° 00' 01"
Sunlit
Object was in full shadow at epoch
Visualization orbit readout
Latitude
Unknown
Longitude
Unknown
Altitude
Unknown
Speed
Unknown
Apparent Right ascension
Unknown
Apparent Declination
Unknown
Sunlit
N/A
Visualization observer readout
Local Sidereal Time
12:19:58
Azimuth
Unknown
Elevation
Unknown
Doppler factor
Unknown
Orbital elements
Apogee altitude
26,159.917 km
Perigee altitude
213.985 km
Semi-major axis
19,565.088 km
Eccentricity
0.66307
Inclination
5.4597°
RAAN
165.5797°
Arg. of periapsis
124.8412°
True anomaly
234.96005°
Mean anomaly
315.8524°
Eccentric anomaly
278.25509°
Mean motion
0.79309 °/min
Orbital period
453.92 mins
BSTAR
0.0010154
Loading maneuver chart data...
Computing Atmospheric mass density...
Loading historical data...
Loading historical data...
Loading historical data...
Loading historical data...
Loading historical data...
Loading historical data...
Loading historical data...
Other satellites on launch #22 in the year 2015 (2015-04-26 UTC)

Documentation

Showing up to 5 results
|